カタログに戻る

FENGYUN 1C DEB

運用中PO
NORAD 31535·DEBRIS·🇨🇳 China

打ち上げ May 10, 1999 から Taiyuan Satellite Launch Center

Loading…

次のパス (今後24時間)

TLE

経年Source: Space-Track

元期: Sep 9, 2026, 18:36 UTC

1 31535U 99025BYA 26252.77564802  .00000886  00000-0  34949-3 0  9992
2 31535  98.0205  86.2713 0088474  76.0774 285.0231 14.29114816758011

AllMySatでFENGYUN 1C DEBをリアルタイム追跡

Download on the App Store